�N����,����,�~����,�C��,���x,�C��,����,���ϕ���,�ő�u�ԕ���,�ő厞����,���˗�,�I�_���x,�n�����x,�ő啗���N��,DTYPE
"17/04/08","00:10",0.0,16.2,98.0,1009.3,270.9,0.8,1.0,270.6,0.00,15.9,14.0,"00:04:44",1
"17/04/08","00:20",0.0,16.4,97.2,1009.0,306.2,0.6,1.0,312.0,0.00,16.0,13.8,"00:14:02",1
"17/04/08","00:30",0.0,16.2,97.8,1009.5,317.6,1.0,1.7,313.8,0.00,15.9,13.9,"00:24:38",1
"17/04/08","00:40",0.0,16.1,97.9,1009.3,312.8,1.2,1.7,328.6,0.00,15.8,14.0,"00:33:36",1
"17/04/08","00:50",0.0,16.1,98.0,1009.5,296.3,0.5,1.1,285.5,0.00,15.8,13.9,"00:43:44",1
"17/04/08","01:00",0.0,16.3,97.2,1009.3,268.8,0.6,1.2,264.5,0.00,15.9,13.9,"00:54:22",1
"17/04/08","01:10",0.0,16.1,97.8,1008.6,312.5,0.7,1.3,330.4,0.00,15.8,13.9,"01:08:20",1
"17/04/08","01:20",0.0,16.0,98.0,1008.8,310.3,1.0,1.3,321.1,0.00,15.7,13.8,"01:15:22",1
"17/04/08","01:30",0.0,16.2,97.2,1008.6,311.0,0.8,1.3,324.4,0.00,15.8,13.9,"01:22:40",1
"17/04/08","01:40",0.0,16.0,97.9,1009.0,295.9,1.0,1.4,326.9,0.00,15.7,13.7,"01:33:12",1
"17/04/08","01:50",0.0,16.0,98.0,1008.8,271.2,0.6,0.8,268.4,0.00,15.7,13.9,"01:40:08",1
"17/04/08","02:00",0.0,16.2,97.2,1008.6,314.7,1.1,1.4,325.7,0.00,15.8,13.9,"01:54:20",1
"17/04/08","02:10",0.0,16.1,97.8,1008.1,300.8,0.8,1.4,319.4,0.00,15.8,13.8,"02:03:10",1
"17/04/08","02:20",0.0,16.0,98.0,1008.1,309.5,0.6,1.2,330.1,0.00,15.7,13.7,"02:16:58",1
"17/04/08","02:30",0.0,16.2,97.3,1007.8,298.1,0.6,1.0,312.2,0.00,15.8,13.9,"02:20:08",1
"17/04/08","02:40",0.0,16.0,97.9,1008.1,258.8,0.3,0.9,304.2,0.00,15.7,13.9,"02:31:36",1
"17/04/08","02:50",0.0,15.9,98.0,1008.1,203.3,0.1,0.8,297.7,0.00,15.6,13.7,"02:49:32",1
"17/04/08","03:00",0.0,16.1,97.3,1007.8,285.2,0.7,1.1,319.5,0.00,15.7,14.0,"02:59:46",1
"17/04/08","03:10",0.0,15.9,97.9,1007.8,318.8,1.2,1.6,316.9,0.00,15.6,13.9,"03:07:06",1
"17/04/08","03:20",0.0,15.9,98.1,1008.1,292.4,0.7,1.2,320.3,0.00,15.6,13.8,"03:10:08",1
"17/04/08","03:30",0.0,16.0,97.4,1008.1,255.5,0.5,0.6,254.5,0.00,15.6,13.8,"03:25:28",1
"17/04/08","03:40",0.2,15.9,98.1,1008.1,302.8,0.7,1.0,313.6,0.00,15.6,13.8,"03:35:32",1
"17/04/08","03:50",0.0,16.1,97.3,1008.1,322.4,0.7,1.2,318.5,0.00,15.7,13.8,"03:43:20",1
"17/04/08","04:00",0.0,16.0,98.0,1008.1,302.5,0.3,1.0,314.9,0.00,15.7,13.8,"03:56:40",1
"17/04/08","04:10",0.0,16.0,97.3,1008.1,306.2,1.0,1.4,316.9,0.00,15.6,13.7,"04:03:44",1
"17/04/08","04:20",0.0,15.8,98.0,1008.3,313.6,0.8,1.3,323.0,0.00,15.5,13.7,"04:10:56",1
"17/04/08","04:30",0.0,16.0,97.4,1008.1,287.9,0.7,1.1,286.7,0.00,15.6,13.7,"04:27:22",1
"17/04/08","04:40",0.2,15.9,98.1,1007.8,261.3,0.5,1.0,240.3,0.00,15.6,13.5,"04:39:36",1
"17/04/08","04:50",0.0,16.0,97.4,1008.1,250.7,0.6,1.1,281.2,0.00,15.6,13.8,"04:47:04",1
"17/04/08","05:00",0.0,15.9,98.1,1007.8,291.2,0.6,0.9,320.8,0.00,15.6,13.8,"04:57:20",1
"17/04/08","05:10",0.0,16.1,97.4,1007.8,318.0,0.7,1.3,316.7,0.00,15.7,13.7,"05:00:40",1
"17/04/08","05:20",0.2,15.9,98.0,1007.8,308.9,0.7,1.2,311.3,0.00,15.6,13.8,"05:11:52",1
"17/04/08","05:30",0.0,15.9,97.4,1008.1,320.8,1.1,1.7,317.3,0.00,15.5,13.8,"05:28:38",1
"17/04/08","05:40",0.0,15.8,98.1,1007.8,302.6,1.1,1.7,338.3,0.00,15.5,13.7,"05:37:20",1
"17/04/08","05:50",0.0,16.0,97.4,1007.8,329.6,1.2,1.9,332.8,0.00,15.6,13.7,"05:44:58",1
"17/04/08","06:00",0.0,15.8,98.1,1008.1,322.2,1.2,1.3,334.2,0.00,15.5,13.7,"05:50:56",1
"17/04/08","06:10",0.0,16.0,97.5,1008.3,309.8,1.0,1.3,323.2,0.00,15.6,13.7,"06:04:32",1
"17/04/08","06:20",0.0,15.9,98.2,1008.6,298.4,0.7,1.1,317.4,0.00,15.7,13.8,"06:11:36",1
"17/04/08","06:30",0.0,16.1,97.5,1008.1,300.6,0.8,1.2,290.9,0.00,15.7,13.6,"06:20:56",1
"17/04/08","06:40",0.0,16.0,98.2,1008.3,315.6,1.1,1.3,335.2,0.00,15.8,13.6,"06:36:08",1
"17/04/08","06:50",0.0,16.2,97.6,1008.6,319.0,0.8,1.0,320.5,0.00,15.9,13.7,"06:42:48",1
"17/04/08","07:00",0.0,16.1,98.1,1008.3,324.5,1.0,1.2,332.4,0.00,15.8,13.8,"06:52:40",1
"17/04/08","07:10",0.0,16.3,97.5,1008.1,317.8,0.8,1.2,322.4,0.00,15.9,13.6,"07:08:40",1
"17/04/08","07:20",0.0,16.2,98.1,1008.6,307.9,0.7,1.3,320.9,0.00,15.9,13.8,"07:10:16",1
"17/04/08","07:30",0.2,16.4,97.5,1007.8,312.7,1.0,1.4,325.2,0.00,16.0,13.7,"07:25:36",1
"17/04/08","07:40",0.0,16.3,98.1,1007.8,327.1,1.2,1.9,323.8,0.00,16.0,14.0,"07:36:32",1
"17/04/08","07:50",0.0,16.5,97.6,1008.1,314.3,1.0,1.3,324.5,0.00,16.2,13.6,"07:41:12",1
"17/04/08","08:00",0.0,16.5,98.1,1007.6,292.0,0.8,1.1,313.1,0.01,16.2,13.8,"07:50:16",1
"17/04/08","08:10",0.0,16.8,97.5,1008.3,286.5,1.2,1.6,304.8,0.02,16.4,13.8,"08:03:36",1
"17/04/08","08:20",0.0,16.8,98.0,1008.1,296.2,1.1,1.6,325.2,0.01,16.5,13.8,"08:10:48",1
"17/04/08","08:30",0.0,17.0,97.4,1008.3,299.1,1.2,1.9,303.4,0.01,16.6,13.8,"08:21:44",1
"17/04/08","08:40",0.0,16.9,98.0,1007.8,319.7,1.2,1.7,325.2,0.01,16.6,13.9,"08:31:20",1
"17/04/08","08:50",0.0,17.2,97.3,1008.1,319.3,0.8,1.6,320.2,0.01,16.8,13.8,"08:40:16",1
"17/04/08","09:00",0.6,17.0,98.0,1007.8,311.4,0.8,1.1,308.8,0.02,16.7,13.8,"08:57:04",1
"17/04/08","09:10",0.2,17.4,97.2,1008.1,293.3,0.6,0.9,309.9,0.05,17.0,13.8,"09:00:08",1
"17/04/08","09:20",0.0,17.3,97.8,1008.1,265.1,0.2,0.6,305.6,0.04,17.0,13.9,"09:18:32",1
"17/04/08","09:30",0.2,17.3,97.9,1008.1,304.4,1.0,1.8,310.3,0.04,17.0,14.0,"09:27:28",1
"17/04/08","09:40",0.0,17.4,98.0,1008.1,322.9,1.2,1.9,323.4,0.03,17.1,14.0,"09:30:40",1
"17/04/08","09:50",0.4,17.7,97.2,1007.8,344.8,0.5,0.8,351.2,0.04,17.3,14.1,"09:40:32",1
"17/04/08","10:00",0.6,17.7,97.8,1007.8,332.9,0.2,0.8,322.9,0.05,17.4,13.9,"09:50:08",1
"17/04/08","10:10",0.2,17.9,97.8,1007.6,266.8,0.2,0.6,283.8,0.08,17.6,14.0,"10:09:36",1
"17/04/08","10:20",0.0,18.0,97.7,1008.1,260.0,0.2,0.6,253.1,0.08,17.7,14.3,"10:16:16",1
"17/04/08","10:30",0.2,18.2,97.8,1007.6,165.0,0.1,1.2,121.8,0.09,17.9,14.2,"10:24:40",1
"17/04/08","10:40",0.2,18.2,97.5,1007.6,100.4,0.5,1.3,100.3,0.08,17.8,14.3,"10:35:04",1
"17/04/08","10:50",0.0,18.2,97.5,1007.6,164.6,0.2,0.6,88.7,0.07,17.8,14.2,"10:40:56",1
"17/04/08","11:00",0.0,18.3,97.4,1007.6,192.5,0.3,1.1,119.3,0.06,17.9,14.2,"10:52:32",1
"17/04/08","11:10",0.0,18.4,97.3,1007.6,188.8,0.5,0.9,155.9,0.04,18.0,14.3,"11:02:16",1
"17/04/08","11:20",0.0,18.4,97.3,1007.4,214.0,0.8,1.2,179.0,0.05,18.0,14.5,"11:18:32",1
"17/04/08","11:30",0.0,18.7,97.1,1006.9,267.6,0.2,0.8,204.3,0.09,18.3,14.4,"11:20:24",1
"17/04/08","11:40",0.0,18.9,97.1,1007.1,241.6,0.2,0.8,255.2,0.08,18.5,14.6,"11:34:48",1
"17/04/08","11:50",0.0,19.0,96.5,1006.9,28.6,0.5,1.2,359.7,0.09,18.5,14.6,"11:48:24",1
"17/04/08","12:00",0.0,19.0,96.2,1007.1,40.5,0.5,1.4,108.7,0.09,18.4,14.5,"11:56:24",1
"17/04/08","12:10",0.0,19.0,96.0,1006.9,8.8,0.5,1.1,354.1,0.06,18.4,14.7,"12:02:08",1
"17/04/08","12:20",0.0,19.0,95.7,1006.7,1.0,0.5,1.3,350.5,0.03,18.3,14.7,"12:11:36",1
"17/04/08","12:30",0.0,18.9,95.8,1006.7,33.9,0.5,1.3,50.0,0.02,18.3,14.8,"12:24:16",1
"17/04/08","12:40",0.0,18.9,95.7,1006.4,54.1,0.5,1.6,48.3,0.02,18.2,15.0,"12:36:00",1
"17/04/08","12:50",0.0,18.8,95.7,1006.2,20.7,0.2,1.0,341.7,0.01,18.1,14.9,"12:49:52",1
"17/04/08","13:00",0.0,19.1,95.6,1006.2,331.2,0.7,1.3,340.8,0.07,18.4,14.9,"12:53:28",1
"17/04/08","13:10",0.0,19.3,94.5,1006.2,346.1,0.5,1.0,328.9,0.09,18.4,14.9,"13:06:40",1
"17/04/08","13:20",0.0,19.3,94.2,1006.0,336.4,0.3,1.1,336.6,0.03,18.4,14.7,"13:13:20",1
"17/04/08","13:30",0.0,19.4,94.1,1005.7,316.4,0.6,1.3,330.1,0.03,18.5,14.9,"13:26:48",1
"17/04/08","13:40",0.0,19.6,93.5,1005.7,274.5,0.3,1.0,117.1,0.12,18.6,15.0,"13:39:52",1
"17/04/08","13:50",0.0,19.8,93.0,1005.7,22.2,0.6,1.3,338.6,0.07,18.7,14.9,"13:43:04",1
"17/04/08","14:00",0.0,19.8,92.8,1005.5,150.7,0.3,1.0,112.7,0.08,18.6,15.1,"13:55:28",1
"17/04/08","14:10",0.0,19.9,92.9,1005.2,196.6,0.8,1.4,129.6,0.08,18.8,15.0,"14:02:08",1
"17/04/08","14:20",0.0,19.7,92.7,1005.0,205.6,0.7,1.3,212.2,0.04,18.5,15.0,"14:11:36",1
"17/04/08","14:30",0.0,19.8,92.8,1004.8,232.3,0.6,1.1,235.7,0.06,18.6,14.8,"14:23:44",1
"17/04/08","14:40",0.0,20.2,92.8,1004.3,266.9,0.6,1.1,235.9,0.14,19.0,15.0,"14:34:08",1
"17/04/08","14:50",0.0,20.4,90.8,1004.3,234.8,0.5,1.1,239.7,0.15,18.9,15.2,"14:41:12",1
"17/04/08","15:00",0.0,20.5,90.1,1004.3,230.8,0.6,1.4,330.9,0.05,18.9,15.0,"14:52:32",1
"17/04/08","15:10",0.0,20.2,90.6,1004.3,129.5,0.5,1.6,112.5,0.03,18.7,15.4,"15:04:00",1
"17/04/08","15:20",0.0,20.0,91.2,1004.3,308.4,0.6,1.4,316.0,0.02,18.6,15.2,"15:19:52",1
"17/04/08","15:30",0.0,20.0,91.3,1004.1,309.0,1.0,1.4,317.7,0.01,18.6,15.1,"15:23:36",1
"17/04/08","15:40",0.0,20.0,91.7,1004.1,287.7,0.7,1.2,275.7,0.00,18.6,15.3,"15:35:44",1
"17/04/08","15:50",0.0,19.8,92.0,1004.3,261.5,0.8,1.1,248.2,0.00,18.5,15.3,"15:45:12",1
"17/04/08","16:00",0.0,19.8,92.6,1004.1,257.2,0.5,1.0,260.7,0.00,18.6,15.2,"15:50:08",1
"17/04/08","16:10",0.0,19.7,93.0,1004.1,303.7,0.8,1.3,319.4,0.00,18.6,15.3,"16:00:02",1
"17/04/08","16:20",0.0,19.7,93.5,1003.8,332.0,1.1,1.7,332.0,0.01,18.7,15.3,"16:18:24",1
"17/04/08","16:30",0.2,19.8,93.9,1003.8,308.9,1.1,1.8,330.4,0.03,18.8,15.2,"16:22:32",1
"17/04/08","16:40",0.0,19.7,94.0,1003.6,292.2,1.0,1.6,304.5,0.02,18.7,15.2,"16:34:32",1
"17/04/08","16:50",0.0,19.7,94.2,1003.6,281.5,0.8,1.1,290.1,0.02,18.8,15.3,"16:49:28",1
"17/04/08","17:00",0.0,19.7,94.5,1003.6,282.0,0.8,1.2,287.7,0.04,18.8,15.1,"16:52:16",1
"17/04/08","17:10",0.0,19.9,94.4,1003.6,302.1,1.1,1.6,307.0,0.03,19.0,15.3,"17:09:00",1
"17/04/08","17:20",0.2,19.8,94.5,1003.8,314.1,1.3,1.8,331.9,0.03,18.9,15.4,"17:18:32",1
"17/04/08","17:30",0.0,19.7,94.7,1003.6,336.0,1.2,2.1,332.9,0.00,18.9,15.2,"17:20:32",1
"17/04/08","17:40",0.0,19.5,94.6,1003.8,95.4,0.6,1.6,109.6,0.00,18.7,15.4,"17:37:28",1
"17/04/08","17:50",0.0,19.3,94.8,1003.8,81.2,0.3,1.2,110.8,0.00,18.5,15.3,"17:43:52",1
"17/04/08","18:00",0.2,19.1,95.0,1003.8,25.1,0.5,1.0,82.1,0.00,18.3,15.1,"17:53:20",1
"17/04/08","18:10",0.0,19.0,95.2,1004.1,321.8,1.0,1.6,322.5,0.00,18.3,15.3,"18:05:52",1
"17/04/08","18:20",0.4,19.0,95.4,1003.8,285.0,0.3,1.1,96.1,0.00,18.3,15.3,"18:10:02",1
"17/04/08","18:30",0.4,18.9,95.6,1003.8,93.3,0.7,1.2,94.6,0.00,18.2,15.3,"18:22:24",1
"17/04/08","18:40",0.2,18.8,95.8,1004.1,62.3,0.2,1.0,108.6,0.00,18.2,15.1,"18:39:20",1
"17/04/08","18:50",0.2,18.7,96.0,1004.1,81.3,0.5,1.0,103.8,0.00,18.1,15.3,"18:42:48",1
"17/04/08","19:00",0.2,18.6,96.1,1004.1,87.3,0.3,0.9,106.3,0.00,18.0,15.1,"18:55:20",1
"17/04/08","19:10",0.2,18.6,96.3,1004.1,92.7,0.5,1.0,102.1,0.00,18.0,15.2,"19:05:28",1
"17/04/08","19:20",0.4,18.5,96.4,1003.8,77.7,0.5,1.1,57.9,0.00,18.0,15.2,"19:17:52",1
"17/04/08","19:30",0.2,18.5,96.5,1004.1,74.3,0.7,1.6,59.4,0.00,18.0,15.1,"19:29:20",1
"17/04/08","19:40",0.0,18.5,96.6,1004.3,41.0,0.6,1.1,26.3,0.00,18.0,15.2,"19:35:04",1
"17/04/08","19:50",0.0,18.4,96.7,1004.5,6.5,0.6,1.0,352.9,0.00,17.9,15.2,"19:49:44",1
"17/04/08","20:00",0.0,18.3,96.8,1004.3,350.7,0.7,1.1,349.3,0.00,17.8,15.0,"19:52:48",1
"17/04/08","20:10",0.2,18.2,96.9,1004.3,358.9,0.1,0.5,1.2,0.00,17.7,15.2,"20:00:48",1
"17/04/08","20:20",0.4,18.2,97.0,1004.5,248.2,0.3,0.5,209.7,0.00,17.8,15.2,"20:16:56",1
"17/04/08","20:30",0.4,18.2,97.1,1004.8,293.4,0.6,0.9,311.8,0.00,17.8,15.2,"20:27:44",1
"17/04/08","20:40",0.4,18.2,97.2,1004.5,339.2,0.6,1.3,318.6,0.00,17.8,15.0,"20:39:44",1
"17/04/08","20:50",0.4,18.1,97.0,1004.5,332.3,1.0,1.4,347.0,0.00,17.7,15.1,"20:44:16",1
"17/04/08","21:00",0.6,18.1,97.4,1004.3,320.7,0.1,0.6,318.1,0.00,17.7,15.1,"20:50:08",1
"17/04/08","21:10",0.0,18.1,97.4,1004.5,346.0,0.2,0.6,117.2,0.00,17.7,15.2,"21:05:20",1
"17/04/08","21:20",0.2,18.2,97.4,1005.0,306.4,0.2,0.6,291.5,0.00,17.8,15.0,"21:11:44",1
"17/04/08","21:30",0.2,18.1,97.4,1004.8,40.7,0.2,1.0,110.1,0.00,17.7,15.1,"21:20:40",1
"17/04/08","21:40",0.0,18.1,97.5,1004.5,342.2,0.5,0.9,314.5,0.00,17.7,14.9,"21:32:00",1
"17/04/08","21:50",0.0,18.0,97.4,1004.5,331.3,0.8,1.4,338.4,0.00,17.6,15.0,"21:46:00",1
"17/04/08","22:00",0.0,17.9,97.5,1004.5,326.3,1.0,1.1,335.2,0.00,17.5,15.0,"21:52:56",1
"17/04/08","22:10",0.2,17.8,97.6,1004.3,247.9,0.1,0.5,290.9,0.00,17.5,14.9,"22:00:40",1
"17/04/08","22:20",0.4,17.8,97.7,1004.1,40.7,0.1,0.5,111.8,0.00,17.5,15.1,"22:10:16",1
"17/04/08","22:30",0.2,17.8,97.8,1004.3,323.3,0.1,0.6,335.3,0.00,17.5,14.8,"22:20:02",1
"17/04/08","22:40",0.0,17.8,97.8,1004.1,331.4,0.7,1.2,333.8,0.00,17.5,15.0,"22:33:04",1
"17/04/08","22:50",0.0,17.7,97.8,1003.8,344.6,0.6,1.1,332.0,0.00,17.4,15.0,"22:45:12",1
"17/04/08","23:00",0.0,17.7,97.8,1003.6,270.2,0.3,0.5,313.3,0.00,17.4,15.0,"22:50:08",1
"17/04/08","23:10",0.0,17.7,98.0,1003.6,204.5,0.1,0.5,215.2,0.00,17.4,14.9,"23:00:24",1
"17/04/08","23:20",0.0,17.9,97.2,1003.6,293.5,0.1,0.6,314.6,0.00,17.5,15.0,"23:18:48",1
"17/04/08","23:30",0.0,17.8,97.8,1003.8,44.7,0.3,1.1,114.8,0.00,17.5,14.5,"23:25:04",1
"17/04/08","23:40",0.0,17.6,97.8,1003.6,334.1,1.2,1.7,339.0,0.00,17.3,14.8,"23:32:16",1
"17/04/08","23:50",0.0,17.6,98.0,1003.8,325.0,0.8,1.2,342.3,0.00,17.3,14.9,"23:40:02",1
"17/04/08","24:00",0.0,17.7,97.1,1003.6,335.3,1.2,1.6,335.2,0.00,17.3,15.0,"23:53:44",1
